Armorel, AR

7:07 AM CST on February 11, 2016 (GMT -0600)
Blytheville Municipal

Weather History for KHKA - November, 2013

Change the Weather History Date:

Monday, November 11, 2013

  Actual Average Record
Temperature  
Mean Temperature 52 °F -  
Max Temperature 68 °F - - ()
Min Temperature 36 °F - - ()
Degree Days  
Heating Degree Days 13    
Growing Degree Days 2 (Base 50)    
Moisture  
Dew Point 39 °F    
Average Humidity 63    
Maximum Humidity 86    
Minimum Humidity 36    
Precipitation  
Precipitation 0.00 in - - ()
Sea Level Pressure  
Sea Level Pressure 30.25 in    
Wind  
Wind Speed 5 mph (WSW)    
Max Wind Speed 29 mph    
Max Gust Speed 37 mph    
Visibility 10 miles    
Events Rain    
T = Trace of Precipitation, MM = Missing Value Source: NWS Daily Summary

Daily Weather History Graph

Daily Weather History Graph

Search for Another Location

Airport or City:

Trip Planner

Search our weather history database for the weather conditions in past years. The results will help you decide how hot, cold, wet, or windy it might be!

Date:

Astronomy

Nov. 11, 2013 Rise Set
Actual Time 6:31 AM CST 4:54 PM CST
Civil Twilight 6:04 AM CST 5:21 PM CST
Nautical Twilight 5:34 AM CST 5:52 PM CST
Astronomical Twilight 5:03 AM CST 6:22 PM CST
Moon 1:25 PM CST 12:28 AM CST
Length of Visible Light 11h 16m
Length of Day
10h 22m
Waxing Gibbous, 66% of the Moon is Illuminated
Nov 11
Waxing Gibbous
Nov 17
Full
Nov 25
Last Quarter
Dec 2
New
Dec 9
First Quarter

Hourly Weather History & Observations

Time (CST) Temp. Windchill Dew Point Humidity Pressure Visibility Wind Dir Wind Speed Gust Speed Precip Events Conditions
12:53 AM 39.0 °F 35.7 °F 34.0 °F 82% 30.30 in 10.0 mi North 4.6 mph - N/A   Clear
1:53 AM 39.0 °F 36.8 °F 34.0 °F 82% 30.30 in 10.0 mi ENE 3.5 mph - N/A   Clear
2:53 AM 39.0 °F - 34.0 °F 82% 30.30 in 10.0 mi Calm Calm - N/A   Clear
3:53 AM 37.0 °F - 33.1 °F 86% 30.29 in 10.0 mi Calm Calm - N/A   Clear
4:53 AM 37.0 °F - 33.1 °F 86% 30.30 in 10.0 mi Calm Calm - N/A   Clear
5:53 AM 36.0 °F 33.3 °F 32.0 °F 86% 30.30 in 10.0 mi ENE 3.5 mph - N/A   Clear
6:53 AM 37.9 °F - 33.1 °F 83% 30.31 in 10.0 mi Calm Calm - N/A   Clear
7:53 AM 46.9 °F - 37.9 °F 71% 30.31 in 10.0 mi SE 3.5 mph - N/A   Mostly Cloudy
8:53 AM 52.0 °F - 36.0 °F 54% 30.30 in 10.0 mi South 6.9 mph - N/A   Mostly Cloudy
9:53 AM 57.9 °F - 35.1 °F 42% 30.30 in 10.0 mi SW 9.2 mph - N/A   Mostly Cloudy
10:53 AM 61.0 °F - 36.0 °F 39% 30.28 in 10.0 mi SSW 9.2 mph - N/A   Overcast
11:53 AM 64.0 °F - 37.0 °F 37% 30.24 in 10.0 mi SSW 6.9 mph - N/A   Scattered Clouds
12:53 PM 66.0 °F - 37.9 °F 36% 30.21 in 10.0 mi WSW 9.2 mph - N/A   Clear
1:53 PM 68.0 °F - 41.0 °F 37% 30.19 in 10.0 mi West 8.1 mph - N/A   Overcast
2:53 PM 66.9 °F - 42.1 °F 40% 30.18 in 10.0 mi WNW 6.9 mph - N/A   Overcast
3:53 PM 64.0 °F - 42.1 °F 45% 30.18 in 10.0 mi WNW 5.8 mph - N/A   Overcast
4:53 PM 61.0 °F - 45.0 °F 56% 30.18 in 10.0 mi NW 4.6 mph - N/A   Overcast
5:53 PM 60.1 °F - 43.0 °F 53% 30.19 in 10.0 mi Calm Calm - N/A   Overcast
6:53 PM 57.9 °F - 44.1 °F 60% 30.19 in 10.0 mi Calm Calm - N/A   Mostly Cloudy
7:53 PM 57.0 °F - 45.0 °F 64% 30.19 in 10.0 mi SSW 3.5 mph - N/A   Overcast
8:53 PM 55.0 °F - 45.0 °F 69% 30.19 in 10.0 mi SSW 4.6 mph - N/A   Overcast
9:53 PM 55.0 °F - 46.0 °F 72% 30.20 in 10.0 mi SSW 5.8 mph - N/A   Overcast
10:53 PM 55.9 °F - 46.0 °F 69% 30.23 in 10.0 mi WNW 5.8 mph - N/A   Overcast
11:53 PM 48.9 °F - 44.1 °F 83% 30.28 in 10.0 mi North 28.8 mph 36.8 mph 0.00 in Rain Light Rain